Weather in Kostomucsha

Russia / Republic of Karelia     64°35′16″N   30°35′54″E
temp.,
°C
wind,
m/s
gust,
m/s
humid.,
%
clouds,
%
prec.,
mm/h
press.,
hPa
HPBL,
m
27 february, sat
sat2700:00−2nw3793100 0.0 1004332
03:00−6nnw389692 0.0 1008199
06:00−5nnw3129422 0.0 1010335
09:00−4nnw4119146 0.0 1014389
12:00−2nnw49880 0.0 1015493
15:00−1nw36892 0.0 1017458
18:00−5w36950 0.0 1016138
21:00−7w339514 0.0 101571
28 february, sun
sun2800:00−6sw2594100 0.0 101399
03:00−4ssw3996100 0.1 1011308
06:00−4ssw3696100 0.5 1009266
09:00−3w2797100 0.6 1010223
12:000wnw26100100 0.0 1011481
15:000w4897100 0.0 1013456
18:00−1w489588 0.0 1012331
21:00−3w379580 0.0 1013188
1 march, mon
mon100:00−1w489777 0.0 1012330
03:00+1wsw6119888 0.0 1011495
06:00+1w71591100 0.0 1008638
09:00+1w61493100 0.0 1006895
12:00+1w51297100 0.0 1006775
15:00+1w51099100 0.3 1006563
18:00−1w5138967 0.0 1004631
21:00−1w6158849 0.0 1003731
2 march, tue
tue200:00−2w5148721 0.0 1002646
03:00−2wnw6168349 0.0 1002852
06:00−2nw9188682 0.0 10041306
09:00−4nw6158158 0.1 1008975
12:00−1nw613740 0.0 10111272
15:000wnw612781 0.0 10121152
18:00−2wnw614850 0.0 1013710
21:00−3wnw515880 0.0 1013579
3 march, wed
wed300:00−4wnw411900 0.0 1015337
03:00−5wnw410910 0.0 1016340
06:00−6wnw389452 0.0 1016203
09:00−7w379361 0.0 1016163
12:00−4wsw489110 0.0 1015280
15:00−2wsw5108939 0.0 1011516
18:00−2wsw61393100 0.1 1006770
21:00+1w71497100 0.9 999961